User: anonymous   Login
Location: Unspecified
(0.0000°N, 0.0000°E)
Time: 01:58:26
(UTC+00:00)
Language:

Sich 1 - Orbit

View from above orbital plane
View from above orbital plane
View from above satellite
View from above satellite

Ground track
Ground track

The orbit data is extracted from the following two-line orbital elements,

1 23657U 95046A   17324.92438204 +.00000263 +00000-0 +27300-4 0  9993
2 23657 082.5255 113.5626 0020745 284.0203 075.8707 14.85897741200441
Epoch (UTC): 20 November 2017 22:11:06
Eccentricity: 0.0020745
inclination: 82.5255°
perigee height: 596 km
apogee height: 625 km
right ascension of ascending node: 113.5626°
argument of perigee: 284.0203°
revolutions per day: 14.85897741
mean anomaly at epoch: 75.8707°
orbit number at epoch: 20044

The dashed part of the orbit path shows where the satellite is in the earth's shadow,  

DLR